Location: Pitton
(51.0667°N, 1.7000°W)
Time: 16:41:38
(UTC+00:00)

Terra - Pass Details

Date: 17 September 2019
Orbit: 701 x 703 km, 98.2° (Epoch: 14 October)

Event Time Altitude Azimuth Distance (km) Brightness Sun altitude
Exits shadow 21:02:04 31° 47° (NE) 1,226 2.9 -24.6°
Drops below altitude 10° 21:05:38 10° 2° (N) 2,183 4.8 -25.1°
Sets 21:08:05 0° 352° (N) 3,106 5.9 -25.4°
